Powrót do katalogu

DIAMANT DEB

AktywnyLEO
NORAD 2684·DEBRIS·🇫🇷 France

Wystrzelony Feb 15, 1967 z Hammaguir Space Track Range

Loading…

Następne Przeloty (najbliższe 24 godziny)

TLE

Starzejące sięSource: Space-Track

Epoka: Sep 11, 2026, 06:06 UTC

1 02684U 67014C   26254.25423638  .00002756  00000-0  65787-3 0  9996
2 02684  39.9588 317.8089 0435730 234.4354 121.5047 14.09765791953126

Śledź DIAMANT DEB w czasie rzeczywistym z AllMySat

Download on the App Store